Vertical_Velocity
-1 -5 0 3 0 -1 -1 -5 -1 -5 -4 4 -1 6 -0 -2 1 -7 2 3 3 3 -4 -0 1 -5 3 -3 -1 -4 -0 -0 3 -1 2 1 -3 -0
-2 -3 -3 -2 -0 1 -1 -1 -4 -3 -11 3 -2 -0 2 0 -2 -8 -2 1 0 -4 -4 -5 2 1 5 -2 -3 1 -0 -0 1 -0 2 -0 0 -0
-4 0 -0 4 -5 -2 -3 1 -1 1 -7 1 -11 7 1 -4 -1 -2 1 2 0 -2 -0 3 -2 -0 -2 -1 -1 -2 2 -0 1 -2 2 -0 1 0
5 -2 1 4 -3 -0 0 -3 -5 -1 -2 -1 2 -1 0 8 -4 1 1 0 2 1 -3 -0 -0 0 2 -1 -1 -1 -1 2 0 1 -1 -0 2 -1
3 3 -1 -4 -2 2 -7 -2 -0 -1 -3 -1 1 1 3 -1 2 -1 -1 -3 -1 -1 -3 -4 -1 -3 1 1 3 -2 2 -2 -2 -0 -1 3 -0 1
5 -2 -4 3 1 -5 -4 -4 -7 -3 5 1 -5 1 -4 3 -0 -0 1 -0 -2 -0 1 -1 -1 -2 0 -2 3 0 3 1 -1 -1 0 2 -0 1
1 -2 -3 -1 2 1 -6 -0 3 7 -3 -0 -0 -1 1 -1 -2 -1 0 1 -0 -1 -1 0 -0 -2 2 -1 1 -1 2 -1 -0 -0 0 2 1 0
-0 -3 2 3 -3 1 0 6 -1 2 -0 1 1 -1 3 -1 -1 -1 -1 -1 -1 -0 -0 2 -2 2 0 1 0 0 1 -1 -1 0 0 0 -0 1
-1 -2 -5 -3 0 4 0 -2 2 -3 -2 -6 -1 -3 4 -0 0 -2 0 -2 -1 0 -1 2 1 0 -0 2 1 -1 -1 1 -0 -1 -1 1 0 -0
8 0 0 0 -3 2 4 5 -1 -2 -4 -4 0 0 -1 -1 -1 -1 -0 -1 -1 -0 1 2 0 -4 -0 2 2 0 0 -0 0 1 1 0 -1 -0
3 -2 1 1 -2 -4 -4 -1 -10 -1 0 -2 1 -2 -2 -1 -1 1 0 -1 -0 1 -2 -1 -1 -4 -1 0 0 1 0 -0 0 -0 0 -1 -1 1
-3 4 1 2 -4 -3 -4 -2 -2 -0 1 1 -2 -2 -2 -0 -1 1 1 0 -0 1 -1 2 -3 -3 -1 0 -0 -1 -0 -0 -0 0 0 0 1 -0
6 -3 -1 1 -11 2 -2 1 1 -2 -1 -0 -2 -2 -1 -1 1 1 -0 -2 -0 -1 -0 -1 -1 -0 0 -0 -3 -1 1 0 -1 -1 -1 -0 -0 0
3 -4 -3 -4 -0 2 1 -2 -1 -1 0 -0 -1 -1 -1 0 1 2 1 -2 2 0 -1 -1 -0 1 -3 -2 1 -1 1 -6 -2 0 -1 -2 -2 -2
0 1 2 -0 2 1 -1 -1 -1 -2 1 -0 -1 -0 -1 0 -1 2 -1 -0 1 -1 -0 -0 0 -1 -1 -1 0 -1 -1 -1 0 -1 -1 -0 -1 -0
4 5 2 -1 1 -1 -0 -2 -1 -1 1 0 -1 0 0 0 -0 1 -1 -1 -1 -1 -0 1 0 -1 -2 -1 -1 -1 -0 1 0 -1 -0 -1 -1 -1
1 1 -1 1 -0 -2 -0 0 -1 -1 2 0 1 -0 -0 1 -1 -1 -1 -0 -1 -0 0 0 -1 -1 -1 -0 -0 -2 -0 -0 -2 -1 -1 -1 -1 -1
-1 -2 2 0 -0 -2 -1 1 0 1 1 1 0 0 -0 -0 -1 -0 1 -0 -1 -1 -1 -0 -1 -1 -1 -2 0 -2 0 -1 -2 -2 -2 -0 1 -1
-0 2 1 -1 0 0 -1 2 2 2 -3 2 1 1 0 -1 0 -2 -1 0 -3 -1 0 1 -1 -2 -1 -1 0 1 -0 -3 -2 -2 -1 -1 1 -0
1 2 0 1 -0 0 -1 2 -0 -2 1 2 2 2 -0 -1 -0 -1 -0 -1 -1 -0 -0 0 -2 -2 0 0 -2 2 -3 -3 -1 -2 -2 -2 -0 -2
0 -3 -1 1 1 -1 0 0 0 -1 -1 -1 1 1 0 -0 0 -2 -1 -0 -0 0 -1 -2 -2 1 -1 -1 1 1 0 -2 -1 -2 -2 -1 -1 1
-2 -0 -1 -1 1 -0 -1 0 0 -2 3 2 2 1 -1 -1 -0 -2 -0 -1 -1 -1 -0 -1 -1 -1 -0 -1 -0 0 -1 1 -2 -2 -1 -1 -1 1
-1 3 -1 -1 0 -0 -1 1 -1 -1 1 2 1 -1 -2 0 -2 1 0 -1 -1 -1 -0 -2 -2 -1 -1 -0 -2 -1 -1 -1 -1 -1 -1 -2 -2 2
Height
3102 3105 3108 3108 3107 3106 3106 3105 3102 3099 3099 3099 3097 3094 3091 3089 3086 3085 3082 3079 3077 3076 3075 3075 3075 3076 3075 3073 3073 3073 3073 3072 3073 3074 3076 3079 3080 3082
3098 3100 3101 3101 3101 3100 3099 3097 3096 3093 3091 3090 3090 3087 3084 3080 3079 3077 3076 3073 3071 3069 3068 3068 3068 3068 3067 3066 3067 3066 3066 3066 3067 3068 3070 3072 3074 3076
3092 3093 3095 3094 3092 3092 3091 3089 3089 3085 3084 3081 3081 3079 3077 3073 3071 3069 3068 3066 3064 3062 3062 3062 3061 3061 3060 3060 3061 3060 3061 3061 3061 3062 3065 3067 3069 3071
3084 3086 3086 3085 3084 3084 3082 3081 3081 3078 3076 3076 3073 3071 3069 3065 3063 3062 3060 3059 3057 3056 3054 3055 3054 3054 3054 3054 3054 3055 3056 3057 3057 3058 3060 3063 3065 3067
3078 3078 3079 3077 3076 3074 3074 3073 3072 3072 3069 3067 3065 3063 3061 3057 3056 3054 3053 3052 3050 3049 3048 3048 3049 3048 3048 3048 3049 3051 3052 3053 3054 3055 3057 3059 3062 3064
3071 3070 3070 3069 3067 3066 3066 3065 3064 3063 3062 3058 3057 3055 3054 3051 3049 3047 3045 3044 3044 3043 3043 3043 3043 3043 3044 3044 3045 3047 3048 3049 3050 3052 3054 3056 3057 3060
3063 3062 3062 3060 3059 3057 3057 3056 3055 3054 3053 3051 3049 3047 3046 3043 3040 3040 3039 3038 3037 3037 3037 3037 3037 3039 3040 3041 3042 3043 3044 3046 3047 3048 3050 3052 3053 3055
3053 3053 3054 3051 3050 3048 3049 3048 3048 3046 3045 3043 3041 3039 3036 3035 3034 3033 3032 3031 3031 3031 3031 3032 3034 3034 3036 3036 3038 3039 3039 3041 3042 3043 3045 3047 3048 3050
3043 3043 3042 3044 3044 3043 3042 3041 3040 3039 3037 3035 3034 3031 3030 3028 3027 3026 3026 3025 3025 3026 3027 3028 3029 3031 3031 3032 3033 3034 3034 3036 3036 3038 3039 3041 3043 3044
3034 3035 3037 3037 3038 3038 3036 3033 3032 3030 3030 3025 3027 3023 3022 3022 3022 3022 3022 3022 3022 3023 3024 3025 3026 3027 3027 3027 3028 3029 3029 3030 3032 3033 3034 3036 3037 3039
3026 3027 3029 3029 3030 3029 3029 3026 3025 3022 3021 3018 3017 3017 3017 3017 3017 3018 3018 3018 3019 3020 3020 3022 3022 3023 3024 3023 3024 3024 3025 3026 3027 3028 3030 3031 3033 3034
3019 3019 3021 3021 3021 3021 3020 3017 3015 3014 3013 3012 3011 3012 3012 3013 3013 3014 3015 3016 3016 3016 3017 3018 3019 3020 3020 3020 3020 3020 3021 3022 3023 3024 3025 3026 3028 3029
3010 3010 3011 3012 3014 3013 3010 3008 3008 3007 3006 3007 3007 3008 3009 3010 3010 3011 3012 3012 3013 3013 3014 3014 3015 3016 3016 3016 3017 3017 3017 3018 3019 3020 3021 3022 3023 3024
3000 3001 3002 3004 3005 3003 3002 3001 3000 3000 3000 3001 3003 3004 3005 3006 3006 3007 3008 3008 3008 3009 3010 3011 3011 3012 3012 3012 3012 3012 3013 3013 3014 3014 3015 3016 3017 3018
2992 2992 2993 2994 2995 2995 2993 2993 2993 2993 2995 2996 2998 2999 3001 3001 3002 3002 3003 3004 3005 3005 3005 3006 3007 3007 3007 3007 3006 3005 3005 3006 3006 3007 3009 3010 3010 3010
2981 2981 2982 2984 2985 2985 2985 2985 2985 2986 2988 2990 2992 2993 2995 2996 2996 2997 2999 3000 3000 3000 3001 3001 3001 3001 3000 2999 2998 2998 2998 2999 3000 3001 3002 3002 3002 3003
2968 2970 2972 2973 2974 2974 2975 2977 2978 2979 2982 2984 2986 2988 2990 2990 2991 2992 2993 2994 2995 2995 2995 2995 2994 2993 2992 2991 2991 2991 2991 2992 2992 2993 2994 2994 2994 2994
2956 2960 2962 2962 2963 2963 2964 2966 2969 2972 2974 2977 2979 2981 2984 2985 2986 2987 2988 2989 2989 2988 2987 2987 2986 2986 2986 2986 2985 2984 2984 2984 2985 2985 2985 2986 2986 2985
2947 2949 2950 2952 2952 2953 2955 2958 2960 2963 2966 2970 2973 2975 2977 2979 2980 2981 2982 2982 2982 2980 2980 2980 2979 2980 2980 2980 2980 2978 2977 2977 2977 2976 2977 2977 2977 2976
2937 2939 2940 2940 2941 2943 2946 2949 2951 2955 2959 2963 2965 2968 2970 2972 2973 2974 2974 2974 2974 2973 2973 2972 2972 2973 2973 2973 2972 2971 2968 2968 2968 2967 2967 2966 2967 2966
2928 2929 2930 2930 2932 2934 2937 2940 2943 2947 2952 2956 2958 2961 2963 2964 2965 2966 2966 2966 2966 2966 2965 2965 2965 2966 2965 2965 2965 2963 2961 2959 2959 2958 2957 2956 2955 2956
2919 2920 2921 2922 2923 2926 2929 2933 2936 2940 2945 2948 2951 2952 2954 2956 2957 2957 2958 2958 2959 2958 2957 2957 2958 2958 2957 2957 2956 2955 2952 2951 2949 2948 2947 2946 2945 2946
2910 2912 2914 2915 2916 2919 2922 2925 2929 2933 2937 2940 2942 2945 2947 2948 2948 2949 2950 2950 2950 2951 2950 2949 2949 2949 2949 2948 2947 2946 2943 2942 2940 2939 2939 2937 2936 2936